User: anonymous   Login
Location: Vale
(35.4830°N, 81.3830°W)
Time: 10:30:07
(UTC-04:00)
Language:

Cosmos 2237 Rocket - Orbit

View from above orbital plane
View from above orbital plane
View from above satellite
View from above satellite

Ground track
Ground track

The orbit data is extracted from the following two-line orbital elements,

1 22566U 93016B   15245.76411548 -.00000013 +00000-0 +17900-4 0  9999
2 22566 071.0105 358.4501 0008893 036.5401 323.6327 14.14912104158849
Epoch (UTC): 02 September 2015 18:20:19
Eccentricity: 0.0008893
inclination: 71.0105°
perigee height: 836 km
apogee height: 849 km
right ascension of ascending node: 358.4501°
argument of perigee: 36.5401°
revolutions per day: 14.14912104
mean anomaly at epoch: 323.6327°
orbit number at epoch: 15884

The dashed part of the orbit path shows where the satellite is in the earth's shadow,  

DLR